This demonstration page uses our WeatherBlox Daily Observations layout. Learn more.

Left ArrowRight Arrow

34.74481, -87.66753

Hourly Observations for October 20, 2019

Temp ( °F °C ) Dew Point ( °F °C ) Humidity (%) Winds ( mph kmh ) Pressure ( in mb ) Visibility ( mi km ) Precip ( " mm )
12:53 am 00:53 Cloudy with Mist and Fog 61 16.1 58 14.4 90 90 WNW 3 6 29.82 1010 6 10 0.00 0.00
1:20 am 01:20 Cloudy 61 16.1 58 14.4 90 90 Calm 29.83 1010 10 16 0.00 0.00
1:53 am 01:53 Cloudy 61 16.1 59 15 93 93 Calm 29.82 1010 10 16 0.00 0.00
2:53 am 02:53 Cloudy 61 16.1 59 15 93 93 SSE 3 6 29.83 1010 10 16 0.00 0.00
3:39 am 03:39 Cloudy 61 16.1 58 14.4 90 90 S 3 6 29.84 1010 10 16 0.00 0.00
3:53 am 03:53 Cloudy 61 16.1 58 14.4 90 90 SSW 3 6 29.83 1010 10 16 0.00 0.00
4:19 am 04:19 Cloudy 61 16.1 58 14.4 90 90 SSW 3 6 29.85 1011 8 13 0.00 0.00
4:53 am 04:53 Cloudy with Mist and Fog 60 15.6 58 14.4 93 93 Calm 29.84 1011 6 10 0.00 0.00
5:53 am 05:53 Cloudy with Mist and Fog 60 15.6 58 14.4 93 93 Calm 29.87 1011 4 6 0.00 0.00
6:53 am 06:53 Cloudy with Mist and Fog 60 15.6 59 15 96 96 Calm 29.88 1012 6 10 0.00 0.00
7:01 am 07:01 Cloudy with Mist and Fog 60 15.6 58 14.4 93 93 S 3 6 29.89 1012 6 10 0.00 0.00
7:53 am 07:53 Cloudy with Mist and Fog 61 16.1 59 15 93 93 VRB 3 6 29.91 1013 5 8 0.00 0.00
8:41 am 08:41 Cloudy 62 16.7 59 15 90 90 W 5 7 29.92 1013 10 16 0.00 0.00
8:53 am 08:53 Cloudy 62 16.7 59 15 90 90 W 6 9 29.93 1014 10 16 0.00 0.00
9:02 am 09:02 Cloudy 63 17.2 59 15 87 87 Calm 29.93 1014 10 16 0.00 0.00
9:19 am 09:19 Cloudy 64 17.8 58 14.4 81 81 Calm 29.93 1014 10 16 0.00 0.00
9:53 am 09:53 Cloudy 65 18.3 57 13.9 76 76 Calm 29.93 1013 10 16 0.00 0.00
10:36 am 10:36 Cloudy 66 18.9 57 13.9 73 73 Calm 29.94 1014 10 16 0.00 0.00
10:53 am 10:53 Cloudy 66 18.9 57 13.9 73 73 Calm 29.94 1014 10 16 0.00 0.00
11:53 am 11:53 Cloudy 69 20.6 57 13.9 66 66 SSW 7 11 29.94 1014 10 16 0.00 0.00
12:23 pm 12:23 Mostly Sunny 70 21.1 56 13.3 61 61 VRB 3 6 29.93 1013 10 16 0.00 0.00
12:53 pm 12:53 Sunny 73 22.8 56 13.3 55 55 SSW 7 11 29.92 1013 10 16 0.00 0.00
1:53 pm 13:53 Sunny 75 23.9 55 12.8 50 50 Calm 29.89 1012 10 16 0.00 0.00
2:53 pm 14:53 Sunny 78 25.6 55 12.8 45 45 SSW 6 9 29.88 1012 10 16 0.00 0.00
3:53 pm 15:53 Sunny 78 25.6 57 13.9 48 48 VRB 3 6 29.88 1012 10 16 0.00 0.00
4:53 pm 16:53 Sunny 79 26.1 58 14.4 49 49 SE 8 13 29.87 1011 10 16 0.00 0.00
5:53 pm 17:53 Partly Cloudy 74 23.3 59 15 60 60 SE 5 7 29.87 1011 10 16 0.00 0.00
6:53 pm 18:53 Mostly Clear 70 21.1 59 15 68 68 SSE 5 7 29.88 1012 10 16 0.00 0.00
7:53 pm 19:53 Clear 66 18.9 59 15 78 78 SE 5 7 29.89 1012 10 16 0.00 0.00
9:53 pm 21:53 Cloudy 67 19.4 60 15.6 79 79 E 5 7 29.91 1013 10 16 0.00 0.00
10:53 pm 22:53 Mostly Cloudy 66 18.9 59 15 78 78 SE 8 13 29.91 1013 10 16 0.00 0.00
11:53 pm 23:53 Cloudy 66 18.9 59 15 78 78 ESE 7 11 29.88 1012 10 16 0.00 0.00

Powered by AerisWeather